ДАННЫЕ О ПОГОДЕ

СЕГОДНЯ
Time Темп. Т росы. Влаж. Давл.
00:03 19.2 14.5 74 1026.4
00:13 19.2 14.5 74 1026.4
00:24 19.2 14.5 74 1026.2
00:41 19.1 14.2 73 1026.1
00:49 19.1 14.2 73 1026.1
00:59 19.1 14.2 73 1026
01:09 19.1 14.2 73 1026
01:19 19 14.1 73 1026
01:29 19 14.1 73 1026
01:40 18.9 14 73 1025.9
01:49 18.9 14 73 1025.8
01:59 18.9 14 73 1025.8
02:10 18.9 14 73 1025.8
02:20 18.8 13.9 73 1025.8
02:29 18.8 13.9 73 1025.7
02:39 18.8 13.9 73 1025.7
02:50 18.8 13.9 73 1025.6
03:00 18.8 13.9 73 1025.5
03:10 18.8 13.9 73 1025.4
03:20 18.7 13.8 73 1025.3
03:30 18.7 13.6 72 1025.3
03:40 18.6 13.5 72 1025.2
03:50 18.6 13.5 72 1025.1
04:01 18.5 13.6 73 1025.1
04:10 18.5 13.4 72 1025.1
04:20 18.5 13.4 72 1025.1
04:30 18.4 13.3 72 1024.9
04:41 18.4 13.5 73 1024.7
04:50 18.4 13.5 73 1024.8
05:00 18.3 13.4 73 1024.9
05:11 18.3 13.4 73 1025
05:21 18.3 13.4 73 1024.8
05:31 18.3 13.4 73 1024.9
05:41 18.3 13.6 74 1024.9
05:51 18.3 13.6 74 1024.7
06:01 18.3 13.6 74 1024.6
06:08 18.3 13.6 74 1024.5
06:17 18.3 13.6 74 1024.6
06:28 18.3 13.6 74 1024.6
06:38 18.3 13.6 74 1024.7
06:48 18.2 13.5 74 1024.7
06:58 18.2 13.5 74 1025
07:08 18.2 13.5 74 1025
07:18 18.1 13.4 74 1025.1
07:28 18.1 13.4 74 1025.2
07:38 18.1 13.4 74 1025
07:48 18.1 13.4 74 1024.9
07:58 18.1 13.4 74 1024.9
08:08 18.1 13.6 75 1025.1
08:19 18.2 13.7 75 1025.2
08:28 18.2 13.7 75 1025.3
08:38 18.3 13.8 75 1025.2
08:49 18.3 13.8 75 1025.2
08:59 18.4 13.9 75 1025.2
09:09 18.5 14.2 76 1025.3
09:18 18.5 14.2 76 1025.3
09:29 18.6 14.5 77 1025.6
09:39 18.7 14.6 77 1025.6
09:49 18.8 14.7 77 1025.4
09:59 18.8 14.9 78 1025.6
10:09 18.9 15 78 1025.8
10:19 19 15.1 78 1025.8
10:29 19 15.1 78 1025.7
10:39 19.1 15 77 1025.7
10:49 19.2 15.1 77 1025.9
10:59 19.2 15.1 77 1025.9
11:10 19.3 15.2 77 1025.9
11:20 19.5 15.4 77 1026.1
11:29 19.5 15.4 77 1026
11:39 19.6 15.5 77 1026.1
11:50 19.7 15.6 77 1026.1
12:00 19.7 15.6 77 1026.1
12:09 19.7 15.6 77 1026.2
12:20 19.8 15.5 76 1026.2
12:30 19.8 15.5 76 1026.4
12:40 19.8 15.5 76 1026.3
12:50 19.9 15.5 76 1026.3
13:00 19.9 15.5 76 1026.3
13:10 20 16.1 78 1026.2
13:20 20.1 15.5 75 1026.2
13:31 20.1 15.5 75 1026.2
13:40 20.1 15.3 74 1026.4
13:50 20.2 15.8 76 1026.3
13:58 20.3 15.7 75 1026.3
14:08 20.4 15.8 75 1026.2
14:18 20.4 15.6 74 1026.2
14:29 20.5 15.7 74 1026.1
14:38 20.7 16.1 75 1026.2
14:48 20.8 16 74 1026.1
14:59 20.9 16.1 74 1026.1
15:09 20.9 16.3 75 1026.1

СТАТИСТИКА ЗА ДЕНЬ

2021-05-12
TЕМПЕРАТУРА
СРЕДНЯЯ
19.0
МАКСИМАЛЬНАЯ
20.9
14:59
МИНИМАЛЬНАЯ
18.1
07:18
ДАВЛЕНИЕ
СРЕДНЯЯ
1025.6
МАКСИМАЛЬНАЯ
1026.4
00:03
МИНИМАЛЬНАЯ
1024.5
06:08
ТОЧКА РОСЫ
СРЕДНЯЯ
14.4
МАКСИМАЛЬНАЯ
16.3
15:09
МИНИМАЛЬНАЯ
13.3
04:30
ВЛАЖНОСТЬ
СРЕДНЯЯ
75
МАКСИМАЛЬНАЯ
78
09:59
МИНИМАЛЬНАЯ
72
03:30
TЕМПЕРАТУРА (°C)
МИНИМАЛЬНАЯ
18.1
МАКСИМАЛЬНАЯ
20.9
СРЕДНЯЯ
19.0
ДАВЛЕНИЕ (hpa)
МИНИМАЛЬНАЯ
1024.5
МАКСИМАЛЬНАЯ
1026.4
СРЕДНЯЯ
1025.6
УСТРОЙСТВО